Effective Sunday, March 17, 2024, the National Weather Service National Data Buoy Center will discontinue its Dial-A-Buoy Interactive Voice Response system. For more information, see Service Change Notice 24-06 (PDF).

Station 46092 - MBM1 Image indicating link to RSS feed of recent meteorological observations for station 46092


Conditions at 46092 as of
(9:41 pm PST on 02/22/2024)
0541 GMT on 02/23/2024:
     

Click on the graph icon in the table below to see a time series plot of the last five days of that observation.

5-day plot - Wind Direction Wind Direction (WDIR):WNW ( 300 deg true )
5-day plot - Wind Speed Wind Speed (WSPD): 7.8 kts
5-day plot - Atmospheric Pressure Atmospheric Pressure (PRES):30.24 in
5-day plot - Pressure Tendency Pressure Tendency (PTDY):+0.03 in ( Rising )
5-day plot - Air Temperature Air Temperature (ATMP): 55.8 °F
5-day plot - Water Temperature Water Temperature (WTMP): 56.7 °F
5-day plot - Wind Speed at 10 Meters Wind Speed at 10 meters (WSPD10M): 9.7 kts
5-day plot - Wind Speed at 20 Meters Wind Speed at 20 meters (WSPD20M): 9.7 kts
5-day plot -  Wind Speed, Wind Gust and Atmospheric Pressure Combined plot of Wind Speed, Gust, and Air Pressure
Previous observations
TIME
(PST)
5-day plot - Wind Direction
WDIR
 
5-day plot - Wind Speed
WSPD
kts
5-day plot - Wind Gust
GST
kts
5-day plot - Wave Height
WVHT
ft
5-day plot - Dominant Wave Period
DPD
sec
5-day plot - Average Wave Period
APD
sec
5-day plot - Mean Wave Direction
MWD
 
5-day plot - Atmospheric Pressure
PRES
in
5-day plot - Pressure Tendency
PTDY
in
5-day plot - Air Temperature
ATMP
°F
5-day plot - Water Temperature
WTMP
°F
5-day plot - Dew Point
DEWP
°F
5-day plot - Salinity
SAL
psu
5-day plot - Visibility
VIS
nmi
5-day plot - Tide (above MLLW)
TIDE
ft
2024-02-22 08:41 pmWNW 9.7-----30.24+0.02 55.8 56.7----
2024-02-22 07:41 pmWNW 7.8-----30.23+0.01 55.8 56.8----
2024-02-22 06:41 pmWNW 7.8-----30.22-0.03 56.1 57.2----
2024-02-22 05:41 pm W 7.8-----30.22-0.05 56.1 57.2----
2024-02-22 04:41 pm W 7.8-----30.22-0.06 56.5 57.4----
2024-02-22 03:41 pm NW 7.8-----30.23- 55.6 57.6----
2024-02-22 02:59 pmWNW 7.8-----30.25-0.04 55.4 57.6----
2024-02-22 01:59 pmWNW 5.8-----30.27-0.03 54.7 57.2----
2024-02-22 12:59 pmWNW------30.28-0.03 53.8 57.0----
2024-02-22 12:09 pmNNW 31.1-----30.29-0.01 53.2 56.8----
2024-02-22 11:19 amNNE 3.9-----30.30+0.02 52.3 56.7----
2024-02-22 10:19 am NE 7.8-----30.31+0.05 51.6 56.5----
2024-02-22 09:19 am NE 11.7-----30.31+0.06 50.5 56.3----
2024-02-22 08:19 amENE 7.8-----30.28+0.04 51.1 56.3----
2024-02-22 07:19 am E 9.7-----30.26+0.02 50.5 56.3----
2024-02-22 06:19 amENE 9.7-----30.24+0.01 51.3 56.5----
2024-02-22 05:19 amNNE 7.8-----30.24+0.00 52.9 56.5----
2024-02-22 04:19 am E 7.8-----30.24-0.02 52.7 56.5----
2024-02-22 03:19 am E 3.9-----30.23-0.03 53.6 56.5----
2024-02-22 02:19 amESE 3.9-----30.25-0.01 54.0 56.5----
2024-02-22 01:19 amNNE 5.8-----30.26-0.01 54.3 56.7----
2024-02-22 12:19 am N------30.27+0.00 54.7 56.7----
2024-02-21 11:19 pm N 7.8-----30.26+0.00 54.3 56.8----